Погода в Ольховатке

Россия / Белгородская область     50°43′49″N   37°45′12″E
темп.,
°C
ветер,
м/с
пор.,
м/с
влажн.,
%
обл.,
%
осадки,
мм/ч
давл.,
гПа
погр.,
м
26 января, вт
вт2600:000юв71484100 0.0 1012364
03:00+1юв81879100 0.0 1009563
06:00+1юв101982100 0.0 1007596
09:00+2ююв91795100 2.5 1007758
12:00+3ю71488100 0.3 1009791
15:00+3ююз5148186 0.3 1010874
18:00+1ююв31085100 0.0 1012231
21:00+1ююв41194100 0.5 1011378
27 января, ср
ср2700:00+3ю61895100 1.7 1010698
03:00+3ю61695100 6.1 1010530
06:00+2ю41197100 1.6 1010344
09:00+2ююв41097100 3.4 1010363
12:00+2ююв31096100 1.9 1009427
15:00+2ююв41095100 3.1 1009357
18:00+2юв41092100 0.4 1008304
21:00+2юв4997100 1.1 1008345
28 января, чт
чт2800:00+2юв51193100 1.3 1008335
03:00+1юв61292100 1.3 1007451
06:00+1юв61294100 0.0 1006514
09:00+1вюв51194100 0.0 1006352
12:00+2юв71190100 0.1 1006531
15:00+2юв6990100 0.1 1005478
18:00+2юв51094100 0.0 1006337
21:00+1юв4996100 0.1 1006257
29 января, пт
пт2900:00+1юв4798100 0.0 1005196
03:00+1ююв2498100 0.0 1004131
06:000ююв3592100 0.0 1003126
09:000ююв31085100 0.0 1002368
12:00+2ю597885 0.0 1000954
15:00+2ю587792 0.2 9981000
18:00−1ююз5108495 1.8 998727
21:00−2ююз5109391 1.9 998693
30 января, сб
сб3000:00−2ююз61095100 0.6 998666
03:00−3юз61092100 1.1 998734
06:00−3юз71191100 0.4 997792
09:00−3юз71189100 0.6 998784
12:00−3юз71185100 0.2 1000809
15:00−3юз71082100 0.3 1000896
18:00−3зюз6978100 0.1 1002888
21:00−3зюз6981100 0.1 1003803